Salalah Airport

Jump to: basic info | weather | frequencies | runways | comments

Related pages: nearby airports | nearby navaids | notams | map

Basic information (top)

Codes: SLL OOSA
Location: lon 17.038700, lat 54.091301, elev 73 ft / 22 m msl
Status: medium_airport
Scheduled airline service: yes
Links: Wikipedia Mobile

Weather (top)

Current conditions (rec'd 2015/04/21 03:50Z):

OOSA 210350Z 31002KT CAVOK 28/08 Q1013 NOSIG RMK02 RH28

Airport forecast (rec'd 2015/04/20 18:00Z):

TAF OOSA 201700Z 2018/2124 VRB03KT CAVOK 
      TEMPO 2022/2107 9999 FEW025 
      BECMG 2106/2108 18012KT 
      BECMG 2115/2117 VRB03KT

Frequencies (top)

Verify before use: may be inaccurate or out of date.

APP: 119.1 MHz (APP)
RDR: 119.1 MHz (RDR)
TWR: 118.2 MHz (TWR)

Runways (top)

07/25: 10,965 x 148 ft (3,342 x 45 m) — paved — lighted

17/35 [CLOSED]: 4,196 x 59 ft (1,279 x 18 m) — grass — not lighted

Latest comments (top)

No comments yet for Salalah Airport

More... (top)

See also NOTAMs and nearby airports and navaids, or visit the Salalah Airport page at the main OurAirports website..